Resolute,

11:05 AM CST on December 18, 2017 (GMT -0600)
Resolute

Weather History for CYRB - September, 2012

Change the Weather History Date:

Saturday, September 22, 2012

  Actual Average Record
Temperature  
Mean Temperature 29 °F -  
Max Temperature 30 °F 15 °F 35 °F (1996)
Min Temperature 28 °F 4 °F 12 °F (2008)
Degree Days  
Heating Degree Days 36    
Moisture  
Dew Point 25 °F    
Average Humidity 85    
Maximum Humidity 93    
Minimum Humidity 80    
Precipitation  
Precipitation 0.00 in 0.02 in - ()
Sea Level Pressure  
Sea Level Pressure 29.95 in    
Wind  
Wind Speed 8 mph ()    
Max Wind Speed 16 mph    
Max Gust Speed -    
Visibility 11.9 miles    
Events Snow    
Averages and records for this station are not official NWS values.
T = Trace of Precipitation, MM = Missing Value Source: Averaged Metar Reports

Daily Weather History Graph

Daily Weather History Graph

Search for Another Location

Airport or City:

Trip Planner

Search our weather history database for the weather conditions in past years. The results will help you decide how hot, cold, wet, or windy it might be!

Date:

Astronomy

Sep. 22, 2012 Rise Set
Actual Time 6:59 AM CDT 7:22 PM CDT
Civil Twilight 5:37 AM CDT 8:42 PM CDT
Nautical Twilight 3:41 AM CDT 10:35 PM CDT
Astronomical Twilight Sun does not rise Sun does not rise
Moon No Moon Rise No Moon Set
Length of Visible Light 15h 05m
Length of Day
12h 23m
Waxing Crescent, 49% of the Moon is Illuminated
Sep 22
Waxing Crescent
Sep 22
First Quarter
Sep 29
Full
Oct 8
Last Quarter
Oct 15
New

Hourly Weather History & Observations

Time (CDT) Temp. Windchill Dew Point Humidity Pressure Visibility Wind Dir Wind Speed Gust Speed Precip Events Conditions
12:00 AM 30.2 °F 23.4 °F 26.6 °F 86% 29.99 in 15.0 mi WSW 6.9 mph - N/A Snow Light Snow Grains
12:14 AM - - - N/A% - 15.0 mi WSW 9.2 mph - N/A   Unknown
1:00 AM 29 °F - 26 °F 84% 29.99 in 12 mi West 6.9 mph - - Snow Light Snow
1:00 AM 28.4 °F 21.2 °F 26.6 °F 93% 29.99 in 12.0 mi West 6.9 mph - N/A Snow Light Snow
2:00 AM 30.2 °F 22.6 °F 24.8 °F 80% 29.99 in 15.0 mi WSW 8.1 mph - N/A Snow Light Snow
3:00 AM 28.4 °F 21.2 °F 24.8 °F 86% 29.98 in 15.0 mi SW 6.9 mph - N/A Snow Light Snow
4:00 AM 28.4 °F 19.7 °F 24.8 °F 86% 29.99 in 12.0 mi SW 9.2 mph - N/A Snow Light Snow
4:35 AM - - - N/A% - 15.0 mi SW 8.1 mph - N/A   Mostly Cloudy
5:00 AM 28.4 °F 20.4 °F 24.8 °F 86% 29.97 in 15.0 mi SSW 8.1 mph - N/A Snow Light Snow
5:30 AM - - - N/A% - 15.0 mi South 5.8 mph - N/A   Unknown
6:00 AM 28.4 °F 22.2 °F 24.8 °F 86% 29.96 in 15.0 mi South 5.8 mph - N/A Snow Light Snow
7:00 AM 29 °F - 25 °F 80% 29.96 in 15 mi SSW 4.6 mph - - Snow Light Snow
7:00 AM 28.4 °F 23.3 °F 24.8 °F 86% 29.96 in 15.0 mi SSW 4.6 mph - N/A Snow Light Snow
7:33 AM - - - N/A% - 3.0 mi SSW 8.1 mph - N/A   Unknown
8:00 AM 28.4 °F 16.6 °F 24.8 °F 86% 29.95 in 3.0 mi SSW 16.1 mph - N/A Snow Light Snow Showers
9:00 AM 28.4 °F 20.4 °F 26.6 °F 93% 29.94 in 3.0 mi South 8.1 mph - N/A Snow Light Snow Showers
10:00 AM 30.2 °F 22.6 °F 26.6 °F 86% 29.94 in 4.0 mi SSE 8.1 mph - N/A Snow Light Snow Showers
11:00 AM 30.2 °F 21.9 °F 26.6 °F 86% 29.93 in 13.0 mi SSE 9.2 mph - N/A Snow Light Snow Showers
12:00 PM 30.2 °F 21.3 °F 26.6 °F 86% 29.92 in 8.0 mi SSE 10.4 mph - N/A Snow Light Snow Showers
1:00 PM 29 °F - 26 °F 81% 29.91 in 7 mi SE 4.6 mph - - Snow Light Snow Showers
1:00 PM 30.2 °F 21.3 °F 24.8 °F 80% 29.91 in 8.0 mi SE 10.4 mph - N/A Snow Light Snow Showers
2:00 PM 30.2 °F 21.9 °F 26.6 °F 86% 29.91 in 8.0 mi SE 9.2 mph - N/A Snow Light Snow Showers
3:00 PM 30.2 °F 20.8 °F 24.8 °F 80% 29.91 in 15.0 mi SE 11.5 mph - N/A   Mostly Cloudy
4:00 PM 30.2 °F 21.3 °F 24.8 °F 80% 29.92 in 15.0 mi ESE 10.4 mph - N/A   Overcast
5:00 PM 30.2 °F 19.8 °F 24.8 °F 80% 29.93 in 15.0 mi East 13.8 mph - N/A   Overcast
6:00 PM 28.4 °F 18.5 °F 24.8 °F 86% 29.94 in 15.0 mi ENE 11.5 mph - N/A   Mostly Cloudy
6:13 PM - - - N/A% - 15.0 mi East 16.1 mph - N/A   Unknown
7:00 PM 29 °F - 25 °F 80% 29.95 in 7 mi East 13.8 mph - - Snow Light Snow
7:00 PM 28.4 °F 17.5 °F 24.8 °F 86% 29.95 in 8.0 mi East 13.8 mph - N/A Snow Light Snow
8:00 PM 28.4 °F 17.5 °F 24.8 °F 86% 29.96 in 15.0 mi ENE 13.8 mph - N/A Snow Light Snow
9:00 PM 28.4 °F 17.0 °F 24.8 °F 86% 29.98 in 15.0 mi ENE 15.0 mph - N/A Snow Light Snow
10:00 PM 30.2 °F 19.3 °F 26.6 °F 86% 29.99 in 15.0 mi ENE 15.0 mph - N/A Snow Light Snow
10:36 PM - - - N/A% - 15.0 mi ENE 13.8 mph - N/A   Mostly Cloudy